www.pogodaiklimat.ru

Погода и климат >> Архив погоды >> Ирак >> Kut-Al-Hai


ПОГОДА в Kut-Al-Hai

  • Прогноз погоды в Kut-Al-Hai
  • Монитор погоды в Kut-Al-Hai
  • Климат города

АРХИВ ПОГОДЫ в Kut-Al-Hai

Время (UTC), дата Ветер
(напр.,м/с)
 
Видим.   Явления Облачность Т
(С)
Тd
(С)
f
(%)
Тe
(С)
Тes
(С)
Комфортность P
(гПа)
Po
(гПа)
Тmin
(С)
Tmax
(С)
R
(мм)
R24
(мм)
S
(см)
18 11.12 З 2 3000 м дымка ясно +14.6 +13.5 93 +14 +14 1022.8 1023.0 +20.0
21 11.12 З 2 5000 м дымка ясно +12.8 +12.0 95 +12 +12 1022.7 1023.0
00 12.12 штиль 0 6000 м дымка ясно +11.8 +11.0 95 +11 +11 1022.5 1023.0
06 12.12 З 2 10 км ясно +13.8 +11.1 84 +13 +16 1024.1 1024.0 +12.4
12 12.12 З 1 10 км ясно +21.2 +13.6 62 +24 +27 комфорт 1020.7 1021.0
15 12.12 В 2 10 км ясно +18.0 +14.0 77 +19 +19 1020.7 1021.0
18 12.12 В 3 10 км ясно +15.6 +12.9 84 +15 +15 1021.4 1021.0 +21.3
21 12.12 В 3 10 км ясно +13.8 +11.3 85 +13 +13 1021.3 1021.0
00 13.12 В 1 8000 м дымка ясно +11.8 +10.2 90 +12 +12 1021.5 1022.0
03 13.12 штиль 0 5000 м дымка ясно +11.0 +10.0 94 +10 +10 1022.2 1022.0
06 13.12 ЮВ 3 10 км ясно +13.8 +11.3 85 +13 +15 1023.8 1024.0 +10.8
09 13.12 ЮВ 4 10 км 4/0
[Ac trans]
+19.5 +12.5 64 +21 +24 комфорт 1022.0 1022.0
12 13.12 Ю 4 10 км 6/6 900 м
[Cu Sc]
+20.9 +13.0 61 +24 +24 комфорт 1021.6 1022.0
15 13.12 Ю 3 10 км 1/0
[Ac trans]
+18.3 +13.9 76 +19 +19 1021.9 1022.0
18 13.12 ЮЗ 1 10 км ясно +15.8 +16.2 100 +16 +16 1023.8 1024.0 +21.2
21 13.12 З 1 10 км ясно +14.2 +12.8 91 +14 +14 1024.2 1024.0
00 14.12 З 1 6000 м дымка ясно +13.2 +12.2 94 +13 +13 1024.7 1025.0
03 14.12 С 2 10 км ясно +12.1 +13.0 100 +11 +11 1025.0 1025.0
06 14.12 СЗ 4 10 км ясно +13.2 +10.9 86 +11 +13 1026.4 1026.0 +12.0
09 14.12 СЗ 2 10 км ясно +16.9 +12.7 76 +17 +24 1025.8 1026.0
12 14.12 СЗ 4 10 км 3/3 900 м
[Cu hum]
+18.9 +12.2 65 +20 +21 1024.9 1025.0
15 14.12 З 4 10 км ясно +16.2 +13.3 83 +15 +15 1025.8 1026.0
18 14.12 З 3 10 км ясно +13.7 +9.6 76 +13 +13 1026.3 1026.0 +19.0
21 14.12 З 4 10 км ясно +11.8 +8.1 78 +10 +10 1025.6 1026.0
00 15.12 З 5 10 км ясно +10.6 +7.7 82 +8 +8 1025.0 1025.0
03 15.12 З 5 10 км ясно +9.7 +6.4 80 +7 +7 1025.7 1026.0
06 15.12 З 3 10 км ясно +11.4 +6.3 71 +10 +12 1026.7 1027.0 +9.5
12 15.12 З 3 10 км ясно +17.4 +6.4 48 +17 +19 1024.5 1025.0
15 15.12 СЗ 2 10 км ясно +14.6 +8.4 66 +14 +14 1025.0 1025.0
18 15.12 З 3 10 км ясно +11.6 +8.7 82 +10 +10 1025.6 1026.0 +17.8
21 15.12 З 2 10 км ясно +10.4 +7.4 82 +9 +9 1025.5 1026.0
00 16.12 З 2 10 км ясно +8.6 +7.3 92 +7 +7 1025.3 1025.0
06 16.12 З 3 10 км ясно +9.6 +7.2 85 +7 +9 1027.4 1027.0 +7.8
09 16.12 З 3 10 км 4/0
[Ci fib]
+15.6 +8.5 63 +15 +21 1026.3 1026.0
12 16.12 З 3 10 км 10/0
[Cs]
+17.5 +8.1 54 +18 +19 1024.6 1025.0
15 16.12 штиль 0 10 км 10/0
[Cs]
+14.6 +11.2 80 +14 +14 1025.2 1025.0
18 16.12 штиль 0 10 км 8/0
[Cs]
+11.8 +10.2 90 +11 +11 1025.8 1026.0 +17.8
21 16.12 В 3 10 км 3/0
[Ac trans]
+10.6 +10.0 96 +8 +8 1025.0 1025.0
00 17.12 Ю 2 10 км 8/0
[Ac und]
+11.2 +10.0 92 +10 +10 1024.1 1024.0
06 17.12 В 4 1000 м слабый дождь 10/5 1050 м
[Sc As op]
+12.4 +11.5 94 +10 +11 1022.7 1023.0 +10.5 0.0
09 17.12 В 6 3000 м в посл. час дождь 8/4 1050 м
[Sc Ac und]
+14.0 +11.1 83 +12 +13 1020.1 1020.0
15 17.12 В 7 7000 м слабый дождь 9/5 1050 м
[Sc Ac und]
+14.8 +9.8 72 +13 +13 1018.6 1019.0
18 17.12 В 8 10 км гроза без осадков {дождь} 9/1 750 м
[Cb cap Ac und]
+14.5 +9.6 72 +12 +12 1019.0 1019.0 +15.3
21 17.12 В 10 10 км в посл. час дождь {гроза} 9/6 600 м
[Cb calv Ac cuf]
+14.7 +12.9 89 +12 +12 1018.9 1019.0
00 18.12 В 5 10 км 9/4 1050 м
[Sc As op]
+13.7 +13.1 96 +12 +12 1020.6 1021.0
06 18.12 В 5 10 км в посл. час морось {дождь} 9/5 750 м
[St As op]
+13.0 +12.0 94 +11 +11 1024.5 1025.0 +12.2 3
12 18.12 ЮВ 2 8000 м дымка 9/0
[As op]
+14.8 +13.3 91 +14 +15 1023.4 1023.0
15 18.12 Ю 2 5000 м дымка 8/0
[As op]
+14.2 +13.4 95 +14 +14 1024.4 1024.0

 

Местоположение метеостанции Kut-Al-Hai (Ирак): широта 32.17 долгота 46.05 высота над уровнем моря 15 м.

В архиве по умолчанию представлена погода в Kut-Al-Hai за последнюю неделю. Архивные данные за месяц целиком и за предыдущие месяцы, начиная с января 2011 года, Вы можете получить, выбрав интересующий диапазон дат из раскрывающегося списка и нажав кнопку "Ввод!".


*Определитесь, кто Вы:
робот инопланетянин человек

Внимание! Время в таблицах - всемирное. Для получения местного времени необходимо прибавить поправку, которая в Kut-Al-Hai равна 3 ч.

Смотрите также архив погоды в соседних городах и на ближайших метеорологических станциях:

Погода в Ubaydah Bin Al Jarrah (Ирак) (45 км)
Погода в Rifai (Ирак) (50 км)
Погода в Ali Al-Gharbi (Ирак) (71 км)
Погода в Diwaniya (Ирак) (103 км)
Погода в Badrah (Ирак) (104 км)
Погода в Amarah (Ирак) (111 км)
Погода в Samawah (Ирак) (122 км)
Погода в Nasiriya (Ирак) (122 км)
Погода в Azizyah (Ирак) (124 км)
Погода в Hella (Ирак) (154 км)

Пояснения к столбцам:

Ветер - указаны скорость ветра в м/с - средняя за 10 мин, порывы в срок и между сроками (в фигурных скобках) и направление, откуда дует ветер: С - северный, СВ - северо-восточный, В - восточный, ЮВ - юго-восточный, Ю - южный, ЮЗ - юго-западный, З - западный, СЗ - северо-западный.
Видимость - горизонтальная дальность видимости в метрах или километрах. При видимости от 1 до 10 км при отсутствии осадков обычно наблюдается дымка, при ухудшении видимости до 1 км и менее - туман. В сухую погоду видимость может ухудшаться дымом, пылью или мглою.
Явления - указаны атмосферные явления, наблюдавшиеся в срок или в последний час перед сроком; фигурными скобками обозначены явления, наблюдавшиеся между сроками (за 1-3 часа до срока); квадратными скобками обозначены град или гололедные отложения с указанием их диаметра в мм.
Облачность - указаны через наклонную черту общая и нижняя облачность в баллах и высота нижней границы облаков в метрах; квадратными скобками обозначены формы облаков: Ci - перистые, Cs - перисто-слоистые, Cc - перисто-кучевые, Ac - высококучевые, As - высокослоистые, Sc - слоисто-кучевые, Ns - слоисто-дождевые, Cu - кучевые, Cb - кучево-дождевые. Подробнее классификацию облаков см. в Атласе облаков (PDF).
T - Температура воздуха - температура, измеренная на высоте 2 м над землей.
Td - Температура точки росы - температура, при понижении до которой содержащийся в воздухе водяной пар достигнет насыщения.
f - Относительная влажность воздуха - влажноcть воздуха, измеренная на высоте 2 м над землей.
Te - Эффективная температура - температура, которую ощущает одетый по сезону человек в тени. Характеристика душности погоды. При расчете учитывается влияние влажности воздуха и скорости ветра на теплоощущения человека.
Tes - Эффективная температура на солнце - температура, которую ощущает человек, с поправкой на солнечный нагрев. Характеристика знойности погоды. Зависит от высоты солнца над горизонтом, облачности и скорости ветра. Ночью, в пасмурную погоду, а также при ветре 12 м/с и более поправка равна нулю.
P - Атмосферное давление - приведенное к уровню моря атмосферное давление.
Po - Атмосферное давление - измеренное на уровне метеостанции атмосферное давление.
Tmin - Минимальная температура - минимум температуры воздуха на высоте 2 м над землей.
Tmax - Максимальная температура - максимум температуры воздуха на высоте 2 м над землей.
R - Количество осадков - Количество выпавших осадков за период времени, мм. При наведении курсора мыши на число - период времени, за который выпало указанное количество осадков.
R24 - Количество осадков - Количество выпавших осадков за 24 часа, мм.
S - Снежный покров - Высота снежного покрова, см. При наведении курсора мыши на число - состояние снежного покрова и степень покрытия местности в баллах.